GW1200 Weather Reports


Display with metric or nautical units.
time (UTC)temp
F
wind
direction
speed
MPH
gust
MPH
rain 1hr
in
rain 24hr
in
rain mn
in
humidity
%
barometer
mb
20260503040329 55 48 3.0 3.0 0.00 0.00 0.00 74 4256.0
20260503035328 55 50 2.0 2.0 0.00 0.00 0.00 75 4255.9
20260503034328 55 41 3.0 3.0 0.00 0.00 0.00 72 4255.7
20260503033328 56 2 4.0 7.0 0.00 0.00 0.00 74 4255.9
20260503032325 56 37 2.0 2.0 0.00 0.00 0.00 73 4255.9
20260503031320 57 0 5.0 7.0 0.00 0.00 0.00 74 4255.8
20260503030318 57 32 5.0 6.0 0.00 0.00 0.00 73 4255.6
20260503025318 57 42 3.0 5.0 0.00 0.00 0.00 72 4255.3
20260503024317 58 38 5.0 6.0 0.00 0.00 0.00 72 4255.2
20260503023317 59 19 5.0 8.0 0.00 0.00 0.00 72 4255.0
20260503022314 59 36 4.0 5.0 0.00 0.00 0.00 70 4254.7
20260503021313 59 53 6.0 7.0 0.00 0.00 0.00 70 4254.4
20260503020308 60 43 14.0 16.0 0.00 0.00 0.00 67 4254.3
20260503015307 61 39 11.0 15.0 0.00 0.00 0.00 66 4254.0
20260503014307 62 2 7.0 9.0 0.00 0.00 0.00 56 4253.8
20260503013301 63 25 7.0 8.0 0.00 0.00 0.00 54 4253.5
20260503012301 63 357 9.0 9.0 0.00 0.00 0.00 54 4253.2
20260503011301 64 4 7.0 7.0 0.00 0.00 0.00 56 4253.1
20260503010300 64 342 9.0 10.0 0.00 0.00 0.00 50 4253.0
20260503005255 64 4 7.0 8.0 0.00 0.00 0.00 56 4252.9
20260503004255 64 40 3.0 6.0 0.00 0.00 0.00 55 4252.7
20260503003254 65 2 8.0 9.0 0.00 0.00 0.00 53 4252.5
20260503002254 65 358 7.0 8.0 0.00 0.00 0.00 54 4252.6
20260503001253 65 37 9.0 10.0 0.00 0.00 0.00 53 4252.3
20260503000253 65 342 3.0 5.0 0.00 0.00 0.00 50 4252.1
20260502235248 66 4 11.0 13.0 0.00 0.00 0.00 52 4252.1
20260502234247 66 333 12.0 13.0 0.00 0.00 0.00 53 4252.0
20260502233246 67 14 12.0 15.0 0.00 0.00 0.00 51 4252.0
20260502232245 67 358 9.0 9.0 0.00 0.00 0.00 51 4251.7
20260502231240 67 357 11.0 13.0 0.00 0.00 0.00 50 4251.9
20260502230236 67 339 7.0 8.0 0.00 0.00 0.00 47 4251.9
20260502225235 67 348 7.0 11.0 0.00 0.00 0.00 48 4251.8
20260502224234 67 359 10.0 11.0 0.00 0.00 0.00 52 4251.9
20260502223229 67 348 10.0 11.0 0.00 0.00 0.00 50 4251.9
20260502222229 67 34 8.0 9.0 0.00 0.00 0.00 49 4251.9
20260502221228 67 343 9.0 13.0 0.00 0.00 0.00 51 4252.0
20260502220226 67 21 3.0 5.0 0.00 0.00 0.00 48 4251.7
20260502215226 66 335 12.0 16.0 0.00 0.00 0.00 49 4251.8
20260502214221 67 18 8.0 9.0 0.00 0.00 0.00 48 4251.6
20260502213221 67 8 9.0 11.0 0.00 0.00 0.00 47 4251.7
20260502212217 67 8 7.0 9.0 0.00 0.00 0.00 50 4251.7
20260502211216 67 356 4.0 6.0 0.00 0.00 0.00 49 4251.7
20260502210216 66 358 7.0 8.0 0.00 0.00 0.00 43 4252.0
20260502205216 66 352 7.0 8.0 0.00 0.00 0.00 45 4252.0
20260502204216 67 332 9.0 9.0 0.00 0.00 0.00 42 4252.0
20260502203212 67 5 8.0 9.0 0.00 0.00 0.00 47 4252.1
20260502202210 67 352 6.0 8.0 0.00 0.00 0.00 46 4252.3
20260502201210 67 357 7.0 8.0 0.00 0.00 0.00 43 4252.4
20260502200208 66 356 6.0 8.0 0.00 0.00 0.00 49 4252.4
20260502195202 66 333 11.0 11.0 0.00 0.00 0.00 49 4252.6
20260502194202 67 356 6.0 7.0 0.00 0.00 0.00 51 4252.8
20260502193201 67 7 9.0 10.0 0.00 0.00 0.00 48 4253.1
20260502192200 66 8 9.0 11.0 0.00 0.00 0.00 46 4253.0
20260502191200 66 352 9.0 10.0 0.00 0.00 0.00 48 4253.0
20260502190155 66 349 11.0 13.0 0.00 0.00 0.00 45 4253.1
20260502185152 67 342 8.0 10.0 0.00 0.00 0.00 39 4253.3
20260502184148 66 22 15.0 17.0 0.00 0.00 0.00 56 4253.1
20260502183146 66 329 12.0 15.0 0.00 0.00 0.00 50 4253.1
20260502182142 66 16 15.0 17.0 0.00 0.00 0.00 50 4253.0
20260502181139 66 3 11.0 14.0 0.00 0.00 0.00 44 4253.3
20260502180138 66 34 2.0 3.0 0.00 0.00 0.00 43 4253.4
20260502170131 66 29 9.0 11.0 0.00 0.00 0.00 48 4253.5
20260502164130 65 12 11.0 13.0 0.00 0.00 0.00 45 4253.6
20260502163129 64 26 10.0 11.0 0.00 0.00 0.00 47 4253.8
20260502162128 64 51 6.0 8.0 0.00 0.00 0.00 49 4253.9
20260502161123 64 350 4.0 7.0 0.00 0.00 0.00 45 4254.2
20260502160119 64 24 7.0 9.0 0.00 0.00 0.00 53 4254.0
20260502152109 63 57 3.0 5.0 0.00 0.00 0.00 50 4254.1
20260502151103 62 32 6.0 6.0 0.00 0.00 0.00 50 4253.8
20260502123045 53 79 3.0 3.0 0.00 0.00 0.00 73 4253.2
20260502122045 52 66 1.0 2.0 0.00 0.00 0.00 74 4253.1
20260502121040 52 21 6.0 7.0 0.00 0.00 0.00 74 4253.1
20260502115038 51 26 3.0 3.0 0.00 0.00 0.00 76 4252.9
20260502114038 51 19 6.0 7.0 0.00 0.00 0.00 72 4252.9
20260502113034 51 17 4.0 5.0 0.00 0.00 0.00 76 4252.6
20260502112029 51 15 5.0 7.0 0.00 0.00 0.00 75 4252.4
20260502111030 51 38 3.0 5.0 0.00 0.00 0.00 75 4252.1
20260502110025 52 42 3.0 5.0 0.00 0.00 0.00 76 4252.4
20260502105025 52 31 4.0 6.0 0.00 0.00 0.00 77 4252.0
20260502104020 52 62 4.0 6.0 0.00 0.00 0.00 73 4252.3
20260502103020 52 36 5.0 6.0 0.00 0.00 0.00 73 4252.1
20260502102019 52 8 6.0 7.0 0.00 0.00 0.00 70 4252.1
20260502101015 52 43 5.0 8.0 0.00 0.00 0.00 73 4251.9
20260502090951 54 36 3.0 3.0 0.00 0.00 0.00 71 4252.0
20260502070927 56 14 5.0 7.0 0.00 0.00 0.00 69 4251.9
20260502065923 56 23 3.0 5.0 0.00 0.00 0.00 63 4252.5
20260502064919 56 34 3.0 3.0 0.00 0.00 0.00 63 4252.6
20260502063919 57 15 4.0 5.0 0.00 0.00 0.00 60 4252.9
20260502062915 57 18 3.0 3.0 0.00 0.00 0.00 62 4253.0
20260502061911 57 42 3.0 3.0 0.00 0.00 0.00 60 4252.9
20260502060910 57 46 3.0 3.0 0.00 0.00 0.00 61 4253.0
20260502055907 57 18 6.0 7.0 0.00 0.00 0.00 61 4252.9
20260502054905 57 23 5.0 6.0 0.00 0.00 0.00 63 4252.8
20260502053905 57 20 6.0 7.0 0.00 0.00 0.00 63 4252.9
20260502052900 58 45 6.0 8.0 0.00 0.00 0.00 57 4253.0
20260502051855 58 28 7.0 8.0 0.00 0.00 0.00 57 4252.7
20260502050850 58 44 5.0 7.0 0.00 0.00 0.00 60 4252.5
20260502045849 58 67 6.0 7.0 0.00 0.00 0.00 60 4252.4
20260502044849 58 41 5.0 7.0 0.00 0.00 0.00 60 4252.1
20260502043848 58 24 4.0 6.0 0.00 0.00 0.00 58 4252.3
20260502042845 59 60 6.0 7.0 0.00 0.00 0.00 59 4252.0
20260502041840 59 48 3.0 3.0 0.00 0.00 0.00 62 4251.9